STARLINK-2745 (48671 NORAD) Tracking and Keplerian Element Data

This shows tracking and keplerian element data for the satellite.

Feedback or suggestion? Click here.




ElementValue
Catalog48671
NameSTARLINK-2745
Epoch Orbit2251
Epoch Day287.96853535
Epoch Year2021
RAAN124.4595
Inclination53.0561
Eccentricity0.0001714
Argument of Perigee86.4444
Mean Anonmoly273.6741
Mean Motion15.06402522
Decay Rate-3.79E-06
L11 48671U 21044AK 21287.96853535 -.00000379 00000-0 -65339-5 0 9993
L22 48671 53.0561 124.4595 0001714 86.4444 273.6741 15.06402522 22518

Live tracking and technical data element details for STARLINK-2745 (NORAD 48671). STARLINK-2745 can be tracked NOW for your location showing map with azimuth and elevation plus other details from your city location.

Track the satellite on the map from your city or location and see movement details for azimuth, elevation, latitude, longitude, range, height, and movement on the map or in text.







IsCatalogInMostPopularTable: catalog: 48671, numindb: 47
Update: records affected: 1



GetName: 48671 STARLINK-2745

Hit Count: updated at: Tue, 19 Oct 2021 09:48:25 GMT